Погода в Мусине

ЮАР     22°19′57″S   30°01′59″E
темп.,
°C
ветер,
м/с
пор.,
м/с
влажн.,
%
обл.,
%
осадки,
мм/ч
давл.,
гПа
погр.,
м
25 января, пн
пн2523:00+22ссв3385100 0.0 100751
02:00+22в1287100 0.0 100624
05:00+21вюв348970 0.0 100867
08:00+24в8117685 0.0 1010489
11:00+29в895793 1.1 1010856
14:00+31в985286 2.3 10091463
17:00+28в10116173 0.5 10091162
20:00+24вюв9128185 0.5 1011675
26 января, вт
вт2623:00+23вюв81185100 0.0 1013481
02:00+23в71181100 0.0 1012520
05:00+22в71088100 0.0 1012454
08:00+23в898499 0.1 1014524
11:00+27всв676299 0.0 10121048
14:00+30в675188 0.1 10091576
17:00+29в885588 0.1 10071549
20:00+25в6117594 1.8 1010401
27 января, ср
ср2723:00+24всв5107998 4.7 1011304
02:00+23всв478079 5.9 1009209
05:00+22в238630 0.1 101081
08:00+25св237529 0.1 1010466
11:00+30с354873 0.0 10101689
14:00+32св454386 0.0 10061939
17:00+31в6648100 0.0 10041195
20:00+28в61063100 0.0 1007375
28 января, чт
чт2823:00+26в5107361 0.7 1009350
02:00+25всв5117760 7.6 1008246
05:00+23в488525 2.2 1009257
08:00+26в577716 6.8 1010467
11:00+30в555547 3.0 10101270
14:00+32в664970 3.4 10061391
17:00+30в8954100 0.4 1006913
20:00+27в71365100 1.0 1009460
29 января, пт
пт2923:00+25вюв81473100 0.0 1012729
02:00+24вюв101480100 0.1 1011995
05:00+23вюв81282100 0.3 1013831
08:00+23в81184100 0.8 1014654
11:00+25в7874100 0.3 1013818
14:00+30в775396 0.4 10101388
17:00+29вюв885874 0.0 10091330
20:00+26вюв6107478 0.0 1011546